Location: Waco, TX
(31.5480°N, 97.1670°W)
Time: 15:44:29
(UTC-05:00)

ISS - Pass Details

Date: 23 August 2019
Orbit: 410 x 421 km, 51.6° (Epoch: 22 August)

Event Time Altitude Azimuth Distance (km) Brightness Sun altitude
Rises 15:16:37 0° 311° (NW) 2,365 0.2 58.4°
Reaches altitude 10° 15:18:44 10° 308° (NW) 1,499 -0.7 58.0°
Maximum altitude 15:22:04 60° 227° (SW) 484 -0.4 57.4°
Drops below altitude 10° 15:25:22 10° 147° (SSE) 1,490 -0.8 56.8°
Sets 15:27:28 0° 144° (SE) 2,350 0.0 56.4°
